This is the latest recevied weather packets stored in our database for station/object KE8CZD. If no packets are shown the sender has not sent any weather packets the latest 10 day(s).
| Time | Temp. | Humidity | Pressure | Rain* | Wind** | Luminosity | Snow |
|---|---|---|---|---|---|---|---|
| 1778024205 | 11.67° C | 41% | 1004.2 hPa | 0 mm | - | - | - |
| 1778023845 | 11.67° C | 41% | 1004 hPa | 0 mm | - | - | - |
| 1778023485 | 11.67° C | 39% | 1004 hPa | 0 mm | - | - | - |
| 1778023125 | 11.67° C | 39% | 1004 hPa | 0 mm | - | - | - |
| 1778022765 | 11.67° C | 39% | 1004 hPa | 0 mm | - | - | - |
| 1778022404 | 12.22° C | 39% | 1004.1 hPa | 0 mm | - | - | - |
| 1778022045 | 12.22° C | 39% | 1004 hPa | 0 mm | - | - | - |
| 1778021685 | 12.22° C | 39% | 1004.1 hPa | 0 mm | - | - | - |
| 1778021325 | 12.22° C | 40% | 1004.1 hPa | 0 mm | - | - | - |
| 1778020965 | 12.22° C | 41% | 1004.2 hPa | 0 mm | - | - | - |
| 1778020604 | 12.22° C | 42% | 1004.2 hPa | 0 mm | - | - | - |
| 1778020244 | 12.22° C | 43% | 0 hPa | 0 mm | - | - | - |
| 1778019885 | 12.22° C | 41% | 1004.2 hPa | 0 mm | - | - | - |
| 1778019525 | 12.22° C | 41% | 1004 hPa | 0 mm | - | - | - |
| 1778019164 | 12.22° C | 42% | 1004.1 hPa | 0 mm | - | - | - |
| 1778018805 | 12.22° C | 44% | 1004 hPa | 0 mm | - | - | - |
| 1778018445 | 12.22° C | 46% | 1004 hPa | 0 mm | - | - | - |
| 1778018084 | 12.22° C | 49% | 1004.2 hPa | 0 mm | - | - | - |
| 1778017725 | 12.78° C | 51% | 1004.1 hPa | 0 mm | - | - | - |
| 1778017364 | 12.78° C | 52% | 1004 hPa | 0 mm | - | - | - |
| 1778017005 | 12.78° C | 53% | 1004 hPa | 0 mm | - | - | - |
| 1778016645 | 12.78° C | 53% | 1003.9 hPa | 0 mm | - | - | - |
| 1778016285 | 12.78° C | 57% | 1003.9 hPa | 0 mm | - | - | - |
| 1778015925 | 12.78° C | 60% | 1004 hPa | 0 mm | - | - | - |
| 1778015564 | 12.22° C | 64% | 1004.1 hPa | 0 mm | - | - | - |
* Rain latest hour (hover to see other rain measurements)
** Current wind speed in m/s (hover to see current wind gust speed)